www.pogodaiklimat.ru
Время
(UTC), дата
15 19.01
18 19.01
21 19.01
00 20.01
03 20.01
06 20.01
09 20.01
12 20.01
15 20.01
18 20.01
21 20.01
00 21.01
03 21.01
06 21.01
09 21.01
12 21.01
15 21.01
18 21.01
21 21.01
00 22.01
03 22.01
06 22.01
09 22.01
12 22.01
15 22.01
18 22.01
21 22.01
00 23.01
03 23.01
06 23.01
09 23.01
12 23.01
15 23.01
18 23.01
21 23.01
00 24.01
03 24.01
06 24.01
09 24.01
12 24.01
15 24.01
18 24.01
21 24.01
00 25.01
03 25.01
06 25.01
09 25.01
12 25.01
15 25.01
18 25.01
21 25.01
00 26.01
03 26.01
06 26.01
09 26.01
12 26.01
Ветер
(напр.,м/с)
Видим. Явления Облачность Т
(С)
Тd
(С)
f
(%)
Тe
(С)
Тes
(С)
Комфортность P
(гПа)
Po
(гПа)
Тmin
(С)
Tmax
(С)
R
(мм)
R24
(мм)
S
(см)
В 1 10 км 10/0
[Ac und]
-8.4 -11.6 78 -11 -11 по сезону 1017.8 973.2 -7.8
СВ 2 10 км 8/0
[Ac trans]
-8.6 -11.4 80 -13 -13 по сезону 1018.8 974.0 -7.8
С 2 10 км 4/0
[Ac trans]
-11.9 -14.2 83 -16 -16 по сезону 1020.0 974.7
С 3 10 км 8/0
[Ac trans]
-13.1 -15.4 83 -19 -19 по сезону 1021.5 975.9
С 1 10 км 10/10 1000 м
[Sc]
-12.3 -14.9 81 -15 -15 по сезону 1023.3 977.7 10
ЮВ 1 2000 м снег 10/10 1000 м
[Ns]
-9.1 -10.2 92 -11 -11 тепло 1024.4 979.3 -13.4
штиль 0 10 км ледяной дождь (гололёд) {снег} 10/10 1000 м
[Ns]
-6.3 -7.8 89 -7 -7 тепло 1023.0 978.4
штиль 0 4000 м дымка {снег} 10/10 1000 м
[Ns]
-5.6 -6.0 97 -7 -7 тепло 1024.3 979.8
штиль 0 10 км 10/10 600 м
[St]
-6.0 -7.1 92 -7 -7 тепло 1025.5 980.9 -5.0
СВ 3 500 м туман ?/? -6.1 -6.5 97 -12 -12 тепло 1023.8 979.2 -5.0 4
СВ 2 4000 м дымка {туман} 10/10 600 м
[St]
-5.5 -6.2 95 -10 -10 тепло 1023.5 979.1
В 3 1000 м дымка {туман} 10/10 600 м
[St]
-5.3 -6.0 95 -11 -11 тепло 1021.4 977.1
В 3 500 м переохл. туман [диам. сложн. отлож. 5 мм] ?/? -4.5 -5.1 96 -10 -10 тепло 1019.2 975.1 11
В 4 200 м переохл. туман ?/? -2.0 -4.6 82 -6.2
В 4 200 м переохл. туман ?/? -1.8 -3.6 87
В 4 200 м переохл. туман ?/? -0.5 -0.9 97 -6 -6 тепло 1010.6 967.5
В 2 200 м переохл. туман ?/? -1.4 -1.3 100 -6 -6 тепло 1010.3 967.1 +0.5
В 3 500 м переохл. туман ?/? -3.4 -3.8 97 -9 -9 тепло 1008.5 965.1 +0.5
СВ 3 10 км {туман} ясно -5.5 -6.6 92 -11 -11 тепло 1007.8 964.1
С 3 10 км {туман} ясно -8.8 -9.5 95 -15 -15 тепло 1007.4 963.2
С 1 10 км [диам. сложн. отлож. 5 мм] 10/10 600 м
[St]
-6.9 -7.8 93 -9 -9 тепло 1008.3 964.3 11
З 2 10 км слаб. снег 10/10 1000 м
[Ns]
-4.1 -5.6 89 -8 -8 тепло 1011.1 967.4 -8.9
З 8
{16}
20 км позёмок {снег} 10/0
[As op]
-8.1 -10.4 83 -18 -17 по сезону 1021.1 976.4
З 5 10 км {снег, метель} 10/0
[Ac und]
-9.1 -13.5 70 -17 -17 по сезону 1027.2 982.0
З 5 10 км 8/0
[Cs]
-13.1 -17.1 72 -21 -21 по сезону 1035.8 989.5 -3.7
З 4 10 км 8/0
[Cs]
-14.1 -18.9 67 -22 -22 по сезону 1037.4 990.9 -3.7 3
З 4 10 км 3/0
[Ci fib]
-16.2 -19.0 79 -24 -24 по сезону 1039.0 992.0
Ю 2 10 км 3/0
[Ci fib]
-17.3 -19.9 80 -23 -23 по сезону 1039.4 992.2
Ю 3 10 км {снег} 10/10 1000 м
[Ns]
-14.1 -16.6 81 -21 -21 по сезону 1038.9 992.4 11
Ю 4 2000 м дымка {снег} 10/0
[As op]
-12.7 -14.7 85 -20 -19 по сезону 1037.4 991.2 -17.3 0.0
Ю 6 2000 м слаб. снег {метель} 10/0
[As op]
-10.9 -13.2 83 -20 -19 по сезону 1034.8 988.9
В 3 2000 м снег {метель} 10/10 1000 м
[Ac As]
-10.6 -12.6 85 -17 -17 по сезону 1032.5 986.8
В 2 4000 м слаб. снег 10/10 1000 м
[Ns]
-9.5 -10.7 91 -14 -14 по сезону 1031.3 985.9 -9.4
С 5 4000 м слаб. снег 10/10 1000 м
[Ns]
-9.7 -11.3 88 -18 -18 по сезону 1031.2 985.8 -9.4 3
С 5 10 км позёмок {снег} 6/0
[Ac trans]
-15.1 -18.7 74 -24 -24 по сезону 1034.7 988.1
С 5 10 км {снег, метель} ясно -17.4 -21.2 72 -27 -27 по сезону 1037.7 990.5
штиль 0 10 км 6/0
[Ci fib]
-25.0 -28.4 73 -25 -25 по сезону 1042.2 993.4 20
штиль 0 10 км 3/0
[Ci fib]
-18.9 -24.6 61 -19 -15 по сезону 1043.0 995.3 -25.1 2
Ю 2 20 км 8/0
[Cc]
-18.6 -23.0 68 -24 -22 прохладно 1044.0 996.3
штиль 0 10 км 5/0
[Ci fib]
-20.7 -24.1 74 -21 -21 по сезону 1045.0 996.9
штиль 0 10 км 9/0
[Cs]
-24.3 -27.2 77 -24 -24 прохладно 1046.9 998.0 -17.5
СВ 4 10 км 4/0
[Cs]
-22.5 -25.7 75 -32 -32 опасность
обморожения
1047.0 998.5 -17.5
СВ 5 10 км ясно -23.7 -26.9 75 -35 -35 опасность
обморожения
1046.0 997.3
СВ 6 10 км ясно -24.7 -27.9 75 -37 -37 опасность
обморожения
1046.0 997.1
СВ 5 10 км 10/0
[Cs]
-24.1 -27.4 74 -35 -35 опасность
обморожения
1045.7 996.9 20
СВ 5 20 км 9/0
[Cs]
-20.5 -24.2 72 -31 -29 опасность
обморожения
1044.7 996.7 -25.0
СВ 4 20 км ясно -16.5 -21.7 64 -25 -23 прохладно 1042.1 995.0
СВ 4 10 км ясно -18.8 -23.2 68 -27 -27 очень
холодно
1041.7 994.2
СВ 4 10 км ясно -20.9 -24.9 70 -30 -30 очень
холодно
1042.6 994.7 -15.5
СВ 4 10 км 4/0
[Cs]
-22.0 -25.7 72 -31 -31 опасность
обморожения
1042.7 994.5 -15.5
штиль 0 10 км 10/0
[Cs]
-17.1 -21.6 68 -17 -17 по сезону 1041.3 994.1
штиль 0 10 км 10/0
[Cs]
-15.7 -20.4 67 -16 -16 по сезону 1041.0 994.0
штиль 0 10 км 10/0
[Cs]
-14.9 -19.2 70 -15 -15 по сезону 1041.5 994.7 20
З 2 20 км 10/0
[Ac und]
-12.8 -18.6 62 -17 -16 по сезону 1041.7 995.2 -22.3
Ю 2 20 км 10/0
[As trans]
-10.4 -16.7 60 -15 -14 по сезону 1040.3 994.3
Ю 2 10 км 10/0
[As op]
-9.9 -14.1 71 -14 -14 по сезону 1040.9 995.0
Местоположение метеостанции Балхаш (Карагандинская область, Казахстан): широта 46.80 долгота 75.08 высота над уровнем моря 350 м.
В архиве по умолчанию представлена погода в Балхаше за последнюю неделю. Архивные данные за месяц целиком и за предыдущие месяцы, начиная с января 2011 года, Вы можете получить, выбрав интересующий диапазон дат из раскрывающегося списка и нажав кнопку "Найти!".
*Определитесь, кто Вы:
Внимание! Время в таблицах - всемирное. Для получения местного времени необходимо прибавить поправку, которая равна 6 ч.
Смотрите также архив погоды в соседних городах и на ближайших метеорологических станциях:
Партнеры нашего сайта:      
Пояснения к столбцам:
  • Ветер - указаны скорость ветра в м/с - средняя за 10 мин, порывы в срок и между сроками (в фигурных скобках) и направление, откуда дует ветер: С - северный,
  • СВ - северо-восточный, В - восточный, ЮВ - юго-восточный, Ю - южный, ЮЗ - юго-западный, З - западный, СЗ - северо-западный.
  • Видимость - горизонтальная дальность видимости в метрах или километрах. При видимости от 1 до 10 км при отсутствии осадков обычно наблюдается дымка, при ухудшении видимости до 1 км и менее - туман. В сухую погоду видимость может ухудшаться дымом, пылью или мглою.
  • Явления - указаны атмосферные явления, наблюдавшиеся в срок или в последний час перед сроком; фигурными скобками обозначены явления, наблюдавшиеся между сроками (за 1-3 часа до срока); квадратными скобками обозначены град или гололедные отложения с указанием их диаметра в мм.
  • Облачность - указаны через наклонную черту общая и нижняя облачность в баллах и высота нижней границы облаков в метрах; квадратными скобками обозначены формы облаков: Ci - перистые, Cs - перисто-слоистые, Cc - перисто-кучевые, Ac - высококучевые, As - высокослоистые, Sc - слоисто-кучевые, Ns - слоисто-дождевые, Cu - кучевые, Cb - кучево-дождевые. Подробнее классификацию облаков см. в Атласе облаков (PDF).
  • T - Температура воздуха - температура, измеренная на высоте 2 м над землей.
  • Td - Температура точки росы - температура, при понижении до которой содержащийся в воздухе водяной пар достигнет насыщения.
  • f - Относительная влажность воздуха - влажноcть воздуха, измеренная на высоте 2 м над землей.
  • Te - Эффективная температура - температура, которую ощущает одетый по сезону человек в тени. Характеристика душности погоды. При расчете учитывается влияние влажности воздуха и скорости ветра на теплоощущения человека.
  • Tes - Эффективная температура на солнце - температура, которую ощущает человек, с поправкой на солнечный нагрев. Характеристика знойности погоды. Зависит от высоты солнца над горизонтом, облачности и скорости ветра. Ночью, в пасмурную погоду, а также при ветре 12 м/с и более поправка равна нулю.
  • P - Атмосферное давление - приведенное к уровню моря атмосферное давление.
  • Po - Атмосферное давление - измеренное на уровне метеостанции атмосферное давление.
  • Tmin - Минимальная температура - минимум температуры воздуха на высоте 2 м над землей.
  • Tmax - Максимальная температура - максимум температуры воздуха на высоте 2 м над землей.
  • R - Количество осадков - Количество выпавших осадков за период времени, мм. При наведении курсора мыши на число - период времени, за который выпало указанное количество осадков.
  • R24 - Количество осадков - Количество выпавших осадков за 24 часа, мм.
  • S - Снежный покров - Высота снежного покрова, см. При наведении курсора мыши на число - состояние снежного покрова и степень покрытия местности в баллах.